Weather History for KTAD - September, 2013

Change the Weather History Date:

Monday, September 9, 2013

  Actual Average Record
Temperature  
Mean Temperature 76 °F 67 °F  
Max Temperature 89 °F 82 °F 93 °F (1979)
Min Temperature 63 °F 52 °F 35 °F (2001)
Degree Days  
Heating Degree Days 0 2  
Month to date heating degree days 0 11  
Since 1 July heating degree days 5 21  
Cooling Degree Days 11 4  
Month to date cooling degree days 100 39  
Year to date cooling degree days 1026 681  
Growing Degree Days 26 (Base 50)    
Moisture  
Dew Point 44 °F    
Average Humidity 34    
Maximum Humidity 52    
Minimum Humidity 15    
Precipitation  
Precipitation 0.00 in 0.05 in 1.77 in (1980)
Month to date precipitation 0.61 0.46  
Year to date precipitation 7.92 10.92  
Sea Level Pressure  
Sea Level Pressure 29.72 in    
Wind  
Wind Speed 12 mph (SSW)    
Max Wind Speed 28 mph    
Max Gust Speed 33 mph    
Visibility 10 miles    
Events      
T = Trace of Precipitation, MM = Missing Value Source: NWS Daily Summary

Daily Weather History Graph

Daily Weather History Graph

Search for Another Location

Airport or City:

Trip Planner

Search our weather history database for the weather conditions in past years. The results will help you decide how hot, cold, wet, or windy it might be!

Date:

Astronomy

Sep. 09, 2013 Rise Set
Actual Time 6:34 AM MDT 7:13 PM MDT
Civil Twilight 6:08 AM MDT 7:39 PM MDT
Nautical Twilight 5:37 AM MDT 8:10 PM MDT
Astronomical Twilight 5:05 AM MDT 8:42 PM MDT
Moon 10:52 AM MDT (9/9) 9:39 PM MDT (9/9)
Length of Visible Light 13h 31m
Length of Day
12h 38m
Waxing Crescent, 19% of the Moon is Illuminated
Sep 9
Waxing Crescent
Sep 12
First Quarter
Sep 19
Full
Sep 26
Last Quarter
Oct 4
New

Hourly Weather History & Observations

Time (MDT) Temp. Dew Point Humidity Pressure Visibility Wind Dir Wind Speed Gust Speed Precip Events Conditions
12:54 AM 75.0 °F 46.0 °F 36% 29.71 in 10.0 mi SSW 18.4 mph 40.3 mph N/A   Clear
1:54 AM 75.0 °F 46.0 °F 36% 29.71 in 10.0 mi South 19.6 mph 32.2 mph N/A   Clear
2:54 AM 73.9 °F 46.0 °F 37% 29.70 in 10.0 mi SSW 18.4 mph 29.9 mph N/A   Clear
3:54 AM 72.0 °F 45.0 °F 38% 29.70 in 10.0 mi SW 6.9 mph - N/A   Partly Cloudy
4:54 AM 73.0 °F 45.0 °F 37% 29.71 in 10.0 mi WSW 11.5 mph 23.0 mph N/A   Clear
5:54 AM 66.9 °F 46.9 °F 49% 29.73 in 10.0 mi NW 11.5 mph - N/A   Clear
6:54 AM 64.0 °F 46.9 °F 54% 29.77 in 10.0 mi West 5.8 mph - N/A   Clear
7:54 AM 69.1 °F 48.9 °F 49% 29.78 in 10.0 mi Calm Calm - N/A   Clear
8:54 AM 73.9 °F 48.0 °F 40% 29.78 in 10.0 mi North 3.5 mph - N/A   Partly Cloudy
9:54 AM 79.0 °F 46.9 °F 32% 29.77 in 10.0 mi Variable 5.8 mph - N/A   Clear
10:54 AM 81.0 °F 44.1 °F 27% 29.76 in 10.0 mi SE 6.9 mph - N/A   Clear
11:54 AM 84.0 °F 44.1 °F 25% 29.74 in 10.0 mi South 5.8 mph - N/A   Clear
12:54 PM 84.0 °F 41.0 °F 22% 29.72 in 10.0 mi East 4.6 mph - N/A   Partly Cloudy
1:54 PM 88.0 °F 41.0 °F 19% 29.68 in 10.0 mi SE 11.5 mph 19.6 mph N/A   Mostly Cloudy
2:54 PM 89.1 °F 35.1 °F 15% 29.66 in 10.0 mi South 13.8 mph 24.2 mph N/A   Clear
3:54 PM 88.0 °F 39.0 °F 18% 29.65 in 10.0 mi SSW 13.8 mph 25.3 mph N/A   Partly Cloudy
4:54 PM 87.1 °F 42.1 °F 21% 29.65 in 10.0 mi South 19.6 mph - N/A   Partly Cloudy
5:54 PM 84.0 °F 43.0 °F 24% 29.67 in 10.0 mi South 19.6 mph 25.3 mph N/A   Scattered Clouds
6:54 PM 80.1 °F 39.9 °F 24% 29.71 in 10.0 mi South 20.7 mph 25.3 mph N/A   Clear
7:54 PM 78.1 °F 39.9 °F 25% 29.72 in 10.0 mi South 15.0 mph 28.8 mph N/A   Clear
8:54 PM 75.9 °F 42.1 °F 30% 29.74 in 10.0 mi South 21.9 mph 27.6 mph N/A   Clear
9:54 PM 75.9 °F 41.0 °F 29% 29.73 in 10.0 mi SW 16.1 mph 23.0 mph N/A   Clear
10:54 PM 73.0 °F 43.0 °F 34% 29.75 in 10.0 mi WSW 13.8 mph - N/A   Clear
11:54 PM 71.1 °F 45.0 °F 39% 29.75 in 10.0 mi SW 11.5 mph - N/A   Clear